TimeMST,TemperatureF,Dew PointF,Humidity,Sea Level PressureIn,VisibilityMPH,Wind Direction,Wind SpeedMPH,Gust SpeedMPH,PrecipitationIn,Events,Conditions,WindDirDegrees,DateUTC
12:58 AM,92.8,49.3,22,29.70,10.0,West,6.9,-,N/A,,Partly Cloudy,280,2013-06-30 07:58:00
1:58 AM,91.8,50.5,24,29.70,10.0,WSW,3.5,-,N/A,,Partly Cloudy,250,2013-06-30 08:58:00
2:58 AM,88.3,48.9,26,29.70,10.0,SSE,8.1,-,N/A,,Scattered Clouds,160,2013-06-30 09:58:00
3:58 AM,89.6,49.1,25,29.70,10.0,South,3.5,-,N/A,,Mostly Cloudy,170,2013-06-30 10:58:00
4:58 AM,87.3,48.0,26,29.72,10.0,South,6.9,-,N/A,,Scattered Clouds,190,2013-06-30 11:58:00
5:58 AM,84.9,46.9,27,29.73,10.0,South,2.3,-,N/A,,Scattered Clouds,170,2013-06-30 12:58:00
6:58 AM,87.4,48.0,25,29.74,10.0,SE,9.2,-,N/A,,Partly Cloudy,140,2013-06-30 13:58:00
7:58 AM,89.4,49.1,25,29.77,10.0,Calm,Calm,-,N/A,,Scattered Clouds,0,2013-06-30 14:58:00
8:58 AM,95.2,50.2,22,29.77,10.0,NW,12.7,-,N/A,,Clear,310,2013-06-30 15:58:00
9:58 AM,99.5,51.1,20,29.77,10.0,NNW,10.4,18.4,N/A,,Clear,330,2013-06-30 16:58:00
10:58 AM,100.9,50.7,18,29.75,10.0,North,9.2,-,N/A,,Clear,360,2013-06-30 17:58:00
11:58 AM,102.4,51.1,18,29.74,10.0,North,12.7,-,N/A,,Partly Cloudy,350,2013-06-30 18:58:00
12:45 PM,105.8,50.0,15,29.88,10.0,WNW,12.7,29.9,N/A,,Partly Cloudy,290,2013-06-30 19:45:00
12:58 PM,106.0,48.4,15,29.70,10.0,WNW,15.0,20.7,N/A,,Partly Cloudy,290,2013-06-30 19:58:00
1:58 PM,107.2,43.0,11,29.67,10.0,WSW,11.5,19.6,N/A,,Clear,250,2013-06-30 20:58:00
2:42 PM,107.6,42.8,11,29.82,10.0,NNW,13.8,18.4,N/A,,Clear,330,2013-06-30 21:42:00
2:58 PM,107.6,43.3,11,29.65,10.0,Variable,2.3,-,N/A,,Clear,0,2013-06-30 21:58:00
3:06 PM,107.6,41.0,10,29.81,10.0,North,16.1,21.9,N/A,,Clear,360,2013-06-30 22:06:00
3:20 PM,107.6,41.0,10,29.80,10.0,NW,13.8,-,N/A,,Clear,320,2013-06-30 22:20:00
3:31 PM,107.6,41.0,10,29.80,10.0,NW,12.7,20.7,N/A,,Clear,310,2013-06-30 22:31:00
3:58 PM,107.6,41.9,11,29.62,10.0,NNW,15.0,-,N/A,,Clear,340,2013-06-30 22:58:00
4:58 PM,107.6,42.8,11,29.60,10.0,NNW,17.3,19.6,N/A,,Clear,340,2013-06-30 23:58:00
5:58 PM,105.1,41.4,11,29.60,10.0,NNW,21.9,-,N/A,Thunderstorm,Partly Cloudy,330,2013-07-01 00:58:00
6:06 PM,105.8,41.0,11,29.77,10.0,NNW,21.9,26.5,N/A,Thunderstorm,Thunderstorm,330,2013-07-01 01:06:00
6:19 PM,105.8,44.6,13,29.79,10.0,NNE,29.9,39.1,N/A,Thunderstorm,Thunderstorm,20,2013-07-01 01:19:00
6:21 PM,104.0,46.4,14,29.79,9.0,NE,33.4,40.3,N/A,Thunderstorm,Thunderstorm,50,2013-07-01 01:21:00
6:22 PM,104.0,46.4,14,29.79,9.0,ENE,33.4,40.3,N/A,Thunderstorm,Thunderstorm,60,2013-07-01 01:22:00
6:23 PM,104.0,48.2,15,29.79,6.0,East,29.9,40.3,N/A,Thunderstorm,Unknown,80,2013-07-01 01:23:00
6:28 PM,98.6,51.8,21,29.79,2.5,East,41.4,54.1,N/A,Thunderstorm,Unknown,80,2013-07-01 01:28:00
6:30 PM,98.6,51.8,21,29.81,1.5,East,36.8,54.1,N/A,Rain-Thunderstorm,Light Thunderstorms and Rain,80,2013-07-01 01:30:00
6:35 PM,95.0,57.2,28,29.87,1.0,NE,25.3,54.1,N/A,Rain-Thunderstorm,Heavy Thunderstorms and Rain,50,2013-07-01 01:35:00
6:37 PM,93.2,59.0,32,29.88,1.0,NE,20.7,54.1,N/A,Rain-Thunderstorm,Heavy Thunderstorms and Rain,40,2013-07-01 01:37:00
6:38 PM,93.2,59.0,32,29.88,1.0,North,18.4,54.1,N/A,Rain-Thunderstorm,Heavy Thunderstorms and Rain,10,2013-07-01 01:38:00
6:41 PM,91.4,55.4,29,29.89,2.0,NNW,16.1,49.5,N/A,Rain-Thunderstorm,Light Thunderstorms and Rain,330,2013-07-01 01:41:00
6:42 PM,91.4,55.4,29,29.89,2.0,NW,16.1,49.5,N/A,Rain-Thunderstorm,Light Thunderstorms and Rain,310,2013-07-01 01:42:00
6:43 PM,91.4,55.4,29,29.89,2.0,WSW,12.7,49.5,N/A,Rain-Thunderstorm,Light Thunderstorms and Rain,250,2013-07-01 01:43:00
6:44 PM,91.4,55.4,29,29.88,2.5,SSE,16.1,46.0,N/A,Rain-Thunderstorm,Heavy Thunderstorms and Rain,160,2013-07-01 01:44:00
6:49 PM,89.6,59.0,36,29.87,8.0,South,20.7,38.0,N/A,Rain-Thunderstorm,Thunderstorms and Rain,180,2013-07-01 01:49:00
6:56 PM,84.2,62.6,48,29.84,10.0,SSE,24.2,31.1,N/A,Rain-Thunderstorm,Light Thunderstorms and Rain,150,2013-07-01 01:56:00
6:57 PM,84.2,62.6,48,29.84,10.0,SSE,20.7,31.1,N/A,Rain-Thunderstorm,Light Thunderstorms and Rain,150,2013-07-01 01:57:00
6:58 PM,84.2,62.6,48,29.70,10.0,SSE,20.7,31.1,0.25,Rain-Thunderstorm,Light Thunderstorms and Rain,150,2013-07-01 01:58:00
7:02 PM,84.2,60.8,45,29.86,10.0,SE,33.4,43.7,N/A,Thunderstorm,Thunderstorm,130,2013-07-01 02:02:00
7:06 PM,84.2,62.6,48,29.87,10.0,SE,33.4,43.7,N/A,Thunderstorm,Partly Cloudy,130,2013-07-01 02:06:00
7:57 PM,84.2,60.8,45,29.93,10.0,SSW,17.3,-,N/A,,Partly Cloudy,200,2013-07-01 02:57:00
7:58 PM,83.7,60.8,46,29.79,10.0,SSW,16.1,-,0.11,,Partly Cloudy,200,2013-07-01 02:58:00
8:58 PM,80.8,60.6,50,29.83,10.0,South,25.3,31.1,N/A,,Clear,190,2013-07-01 03:58:00
9:58 PM,78.4,61.5,56,29.86,10.0,SSE,17.3,-,N/A,,Scattered Clouds,150,2013-07-01 04:58:00
10:49 PM,80.6,60.8,51,30.04,10.0,SE,8.1,-,N/A,,Light Drizzle,140,2013-07-01 05:49:00
10:58 PM,80.4,60.4,50,29.90,10.0,ESE,5.8,-,0.00,,Light Drizzle,110,2013-07-01 05:58:00
10:59 PM,80.6,60.8,51,30.05,10.0,ESE,4.6,-,N/A,Thunderstorm,Mostly Cloudy,120,2013-07-01 05:59:00
11:19 PM,80.6,60.8,51,30.02,10.0,Calm,Calm,-,N/A,,Light Drizzle,0,2013-07-01 06:19:00
11:33 PM,80.6,60.8,51,30.01,10.0,NNW,8.1,-,N/A,,Partly Cloudy,340,2013-07-01 06:33:00
11:37 PM,80.6,60.8,51,30.01,10.0,North,11.5,-,N/A,,Light Drizzle,360,2013-07-01 06:37:00
11:47 PM,80.6,60.8,51,30.00,10.0,NW,9.2,-,N/A,,Scattered Clouds,320,2013-07-01 06:47:00
11:58 PM,80.4,59.7,49,29.82,10.0,West,15.0,-,0.00,,Scattered Clouds,280,2013-07-01 06:58:00